Cloud_Cover
5 5 48 100 67 42 5 5 91 24 5 5 4 0 0 0 1 1 22 73 63 38 50 100 100 69 95 8 10 99 5 5 5 5 5 5 5 0 0 0 0 0 0 0
5 37 44 66 70 86 72 54 83 5 47 35 29 53 100 17 4 14 58 10 5 4 2 4 12 22 97 72 91 100 70 13 5 5 5 45 36 5 16 2 0 0 0 0
5 5 5 11 50 78 87 99 100 60 91 80 25 3 98 85 82 95 50 100 25 5 3 17 52 79 28 63 57 21 23 57 44 70 40 29 5 1 0 0 0 0 0 0
2 6 6 27 58 77 25 100 93 99 100 96 99 29 98 40 27 69 100 100 100 96 100 96 99 7 65 81 50 91 97 98 60 72 32 26 5 0 0 0 5 5 5 5
5 5 5 10 71 70 66 91 100 100 100 100 100 77 99 100 100 100 100 100 100 54 100 100 100 81 100 100 100 100 100 100 100 63 5 2 0 0 0 0 5 5 5 5
3 5 5 11 81 99 98 100 100 100 100 99 100 96 85 100 100 100 100 100 100 100 100 100 100 100 100 100 100 100 100 95 8 5 5 4 0 0 0 4 5 5 5 5
4 2 4 5 21 71 99 100 99 98 100 98 100 76 65 100 100 100 100 100 100 100 100 100 100 100 100 100 100 100 33 5 5 5 5 5 5 2 5 5 32 62 48 9
5 5 3 4 5 11 78 100 100 96 100 100 92 99 100 100 100 100 100 100 100 100 100 100 100 100 100 100 64 5 5 5 5 5 5 5 5 5 5 5 64 100 98 81
5 25 0 5 5 5 44 75 100 100 100 49 98 100 100 100 100 100 100 100 100 100 100 100 100 99 74 14 6 57 54 5 5 5 5 5 5 5 5 5 34 100 85 94
5 6 60 4 0 4 25 70 78 100 98 73 70 100 100 100 100 100 100 100 100 100 100 88 27 5 18 74 75 13 5 5 5 5 5 5 5 5 5 5 91 89 99 89
22 26 75 93 16 26 76 89 81 99 100 97 70 72 100 100 100 100 100 96 95 90 66 42 89 100 100 78 33 5 5 5 5 5 5 5 5 5 5 70 95 100 99 99
100 8 67 100 100 81 42 95 97 100 72 100 100 62 100 100 100 100 100 100 99 98 99 100 100 96 64 61 43 21 30 5 5 5 10 5 5 5 5 57 99 97 98 97
96 63 72 100 100 100 100 91 80 81 94 88 98 100 100 100 100 100 100 100 100 100 100 57 91 53 22 17 5 59 76 5 5 5 19 5 5 5 5 32 100 99 95 100
100 97 100 100 100 100 88 100 98 93 100 14 6 85 100 98 96 100 100 100 100 98 64 32 77 100 30 5 10 93 82 5 5 5 6 5 5 5 5 5 100 99 100 100
100 100 100 100 100 100 100 98 100 100 100 91 5 2 64 95 12 99 86 100 100 98 52 74 54 94 76 26 8 99 99 5 5 5 5 5 5 5 5 5 99 90 100 100
100 100 100 100 100 100 100 100 100 100 100 100 58 12 52 26 100 55 94 99 100 100 100 100 100 85 100 86 67 73 94 40 6 5 5 5 5 5 5 5 97 90 100 97
100 100 99 73 100 99 100 100 100 100 100 100 100 99 100 100 100 100 100 100 100 100 100 100 100 100 100 98 74 89 98 91 7 5 5 5 5 5 5 5 76 72 100 100
100 100 100 94 100 81 96 100 100 100 100 100 100 100 100 100 100 98 100 100 100 100 100 100 100 100 100 100 100 100 100 76 22 5 5 5 5 5 5 5 16 99 100 100
100 100 100 100 100 96 100 100 100 100 100 100 100 100 100 100 100 100 100 100 100 100 100 100 100 100 100 100 100 100 100 100 24 6 5 3 5 5 5 5 5 49 100 100
100 99 100 100 100 100 100 100 100 100 100 100 100 100 100 100 100 99 77 99 100 100 100 99 99 100 100 100 100 100 100 100 75 78 5 2 5 5 5 5 36 100 97 100
87 100 100 100 100 100 99 85 100 100 100 100 100 100 100 99 87 21 77 99 77 100 100 100 100 93 99 100 100 100 100 100 99 98 19 5 0 5 0 5 5 96 64 100
100 100 100 100 100 100 100 100 100 100 100 97 100 100 97 98 100 100 100 79 61 100 100 100 100 100 100 100 100 100 100 100 100 99 39 5 5 0 1 5 5 100 74 100
100 100 93 100 100 100 100 100 99 88 100 100 99 100 100 100 100 100 100 50 59 97 100 100 100 100 100 100 100 100 100 100 100 100 63 31 5 4 0 5 5 34 100 80
70 90 99 60 89 50 9 59 96 99 100 96 99 94 100 100 100 100 63 70 79 100 100 100 100 100 100 100 100 100 100 100 100 95 80 82 17 5 0 0 3 20 81 100
90 96 100 98 19 62 49 95 95 91 84 99 99 98 100 100 100 99 18 90 100 88 100 100 100 100 100 100 100 100 100 100 100 79 73 97 93 30 4 0 5 5 81 100
100 100 100 100 100 100 100 100 100 100 100 100 100 100 100 100 100 94 100 100 87 89 100 100 100 100 100 100 100 100 100 100 100 100 48 95 36 29 5 5 0 14 40 72